Time,TemperatureF,DewpointF,PressureIn,WindDirection,WindDirectionDegrees,WindSpeedMPH,WindSpeedGustMPH,Humidity,HourlyPrecipIn,Conditions,Clouds,dailyrainin,SolarRadiationWatts/m^2,SoftwareType,DateUTC
2013-03-16 00:00:00,35.0,32.0,-100.00,East,90,0.0,-999.0,90,-99.99,,,-99.99,0.000000,,2013-03-16 04:00:00,
2013-03-16 00:43:00,35.0,32.0,-100.00,East,90,0.0,-999.0,90,-99.99,,,-99.99,0.000000,,2013-03-16 04:43:00,
2013-03-16 00:53:00,35.0,32.0,-100.00,East,90,0.0,-999.0,90,-99.99,,,-99.99,0.000000,,2013-03-16 04:53:00,
2013-03-16 01:00:00,34.0,32.0,-100.00,East,90,6.0,-999.0,91,-99.99,,,-99.99,0.000000,,2013-03-16 05:00:00,
2013-03-16 01:42:00,34.0,32.0,-100.00,East,90,6.0,-999.0,91,-99.99,,,-99.99,0.000000,,2013-03-16 05:42:00,
2013-03-16 01:53:00,34.0,32.0,-100.00,East,90,6.0,-999.0,91,-99.99,,,-99.99,0.000000,,2013-03-16 05:53:00,
2013-03-16 02:00:00,35.0,32.0,-100.00,ENE,67,7.0,-999.0,91,-99.99,,,-99.99,0.000000,,2013-03-16 06:00:00,
2013-03-16 02:42:00,35.0,32.0,-100.00,ENE,67,7.0,-999.0,91,-99.99,,,-99.99,0.000000,,2013-03-16 06:42:00,
2013-03-16 02:52:00,35.0,32.0,-100.00,ENE,67,7.0,-999.0,91,-99.99,,,-99.99,0.000000,,2013-03-16 06:52:00,
2013-03-16 03:00:00,34.0,32.0,-100.00,ENE,67,9.0,-999.0,91,-99.99,,,-99.99,0.000000,,2013-03-16 07:00:00,
2013-03-16 03:42:00,34.0,32.0,-100.00,ENE,67,9.0,-999.0,91,-99.99,,,-99.99,0.000000,,2013-03-16 07:42:00,
2013-03-16 03:52:00,34.0,32.0,-100.00,ENE,67,9.0,-999.0,91,-99.99,,,-99.99,0.000000,,2013-03-16 07:52:00,
2013-03-16 04:00:00,34.0,32.0,-100.00,ENE,67,8.0,-999.0,90,-99.99,,,-99.99,0.000000,,2013-03-16 08:00:00,
2013-03-16 04:42:00,34.0,32.0,-100.00,ENE,67,8.0,-999.0,90,-99.99,,,-99.99,0.000000,,2013-03-16 08:42:00,
2013-03-16 04:52:00,34.0,32.0,-100.00,ENE,67,8.0,-999.0,90,-99.99,,,-99.99,0.000000,,2013-03-16 08:52:00,
2013-03-16 05:00:00,34.0,32.0,-100.00,ENE,67,10.0,-999.0,90,0.01,,,-99.99,0.000000,,2013-03-16 09:00:00,
2013-03-16 05:43:00,34.0,32.0,-100.00,ENE,67,10.0,-999.0,90,0.01,,,-99.99,0.000000,,2013-03-16 09:43:00,
2013-03-16 05:53:00,34.0,32.0,-100.00,ENE,67,10.0,-999.0,90,0.01,,,-99.99,0.000000,,2013-03-16 09:53:00,
2013-03-16 06:00:00,34.0,32.0,-100.00,ENE,67,9.0,-999.0,89,-99.99,,,-99.99,0.000000,,2013-03-16 10:00:00,
2013-03-16 06:42:00,34.0,32.0,-100.00,ENE,67,9.0,-999.0,89,-99.99,,,-99.99,0.000000,,2013-03-16 10:42:00,
2013-03-16 06:53:00,34.0,32.0,-100.00,ENE,67,9.0,-999.0,89,-99.99,,,-99.99,0.000000,,2013-03-16 10:53:00,
2013-03-16 07:00:00,34.0,31.0,-100.00,ENE,67,8.0,-999.0,88,-99.99,,,-99.99,0.000000,,2013-03-16 11:00:00,
2013-03-16 07:43:00,34.0,31.0,-100.00,ENE,67,8.0,-999.0,88,-99.99,,,-99.99,0.000000,,2013-03-16 11:43:00,
2013-03-16 07:53:00,34.0,31.0,-100.00,ENE,67,8.0,-999.0,88,-99.99,,,-99.99,0.000000,,2013-03-16 11:53:00,
2013-03-16 08:00:00,32.0,30.0,-100.00,ENE,67,8.0,-999.0,89,-99.99,,,-99.99,0.000000,,2013-03-16 12:00:00,
2013-03-16 08:43:00,32.0,30.0,-100.00,ENE,67,8.0,-999.0,89,-99.99,,,-99.99,0.000000,,2013-03-16 12:43:00,
2013-03-16 08:53:00,32.0,30.0,-100.00,ENE,67,8.0,-999.0,89,-99.99,,,-99.99,0.000000,,2013-03-16 12:53:00,
2013-03-16 09:00:00,32.0,30.0,-100.00,ENE,67,5.0,-999.0,89,-99.99,,,-99.99,6.960000,,2013-03-16 13:00:00,
2013-03-16 09:42:00,32.0,30.0,-100.00,ENE,67,5.0,-999.0,89,-99.99,,,-99.99,6.960000,,2013-03-16 13:42:00,
2013-03-16 09:53:00,32.0,30.0,-100.00,ENE,67,5.0,-999.0,89,-99.99,,,-99.99,6.960000,,2013-03-16 13:53:00,
2013-03-16 10:00:00,32.0,29.0,-100.00,East,90,3.0,-999.0,88,-99.99,,,-99.99,16.240000,,2013-03-16 14:00:00,
2013-03-16 10:42:00,32.0,29.0,-100.00,East,90,3.0,-999.0,88,-99.99,,,-99.99,16.240000,,2013-03-16 14:42:00,
2013-03-16 10:52:00,32.0,29.0,-100.00,East,90,3.0,-999.0,88,-99.99,,,-99.99,16.240000,,2013-03-16 14:52:00,
2013-03-16 11:00:00,32.0,29.0,-100.00,NE,45,6.0,-999.0,88,-99.99,,,-99.99,35.959999,,2013-03-16 15:00:00,
2013-03-16 11:44:00,32.0,29.0,-100.00,NE,45,6.0,-999.0,88,-99.99,,,-99.99,35.959999,,2013-03-16 15:44:00,
2013-03-16 11:53:00,32.0,29.0,-100.00,NE,45,6.0,-999.0,88,-99.99,,,-99.99,35.959999,,2013-03-16 15:53:00,
2013-03-16 12:00:00,31.0,28.0,-100.00,NE,45,5.0,-999.0,87,-99.99,,,-99.99,61.480000,,2013-03-16 16:00:00,
2013-03-16 12:43:00,31.0,28.0,-100.00,NE,45,5.0,-999.0,87,-99.99,,,-99.99,61.480000,,2013-03-16 16:43:00,
2013-03-16 12:53:00,31.0,28.0,-100.00,NE,45,5.0,-999.0,87,-99.99,,,-99.99,61.480000,,2013-03-16 16:53:00,
2013-03-16 13:00:00,30.0,26.0,-100.00,NNE,22,6.0,-999.0,85,-99.99,,,-99.99,99.760002,,2013-03-16 17:00:00,
2013-03-16 13:43:00,30.0,26.0,-100.00,NNE,22,6.0,-999.0,85,-99.99,,,-99.99,99.760002,,2013-03-16 17:43:00,
2013-03-16 13:53:00,30.0,26.0,-100.00,NNE,22,6.0,-999.0,85,-99.99,,,-99.99,99.760002,,2013-03-16 17:53:00,
2013-03-16 14:00:00,30.0,25.0,-100.00,NNE,22,5.0,-999.0,81,-99.99,,,-99.99,146.160004,,2013-03-16 18:00:00,
2013-03-16 14:43:00,30.0,25.0,-100.00,NNE,22,5.0,-999.0,81,-99.99,,,-99.99,146.160004,,2013-03-16 18:43:00,
2013-03-16 14:53:00,30.0,25.0,-100.00,NNE,22,5.0,-999.0,81,-99.99,,,-99.99,146.160004,,2013-03-16 18:53:00,
2013-03-16 15:00:00,31.0,24.0,-100.00,NE,45,9.0,-999.0,76,-99.99,,,-99.99,276.079987,,2013-03-16 19:00:00,
2013-03-16 15:42:00,31.0,24.0,-100.00,NE,45,9.0,-999.0,76,-99.99,,,-99.99,276.079987,,2013-03-16 19:42:00,
2013-03-16 15:53:00,31.0,24.0,-100.00,NE,45,9.0,-999.0,76,-99.99,,,-99.99,276.079987,,2013-03-16 19:53:00,
2013-03-16 16:00:00,31.0,24.0,-100.00,NNE,22,9.0,-999.0,73,-99.99,,,-99.99,293.480011,,2013-03-16 20:00:00,
2013-03-16 16:42:00,31.0,24.0,-100.00,NNE,22,9.0,-999.0,73,-99.99,,,-99.99,293.480011,,2013-03-16 20:42:00,
2013-03-16 16:52:00,31.0,24.0,-100.00,NNE,22,9.0,-999.0,73,-99.99,,,-99.99,293.480011,,2013-03-16 20:52:00,
2013-03-16 17:00:00,31.0,23.0,-100.00,North,0,8.0,-999.0,73,-99.99,,,-99.99,155.440002,,2013-03-16 21:00:00,
2013-03-16 17:43:00,31.0,23.0,-100.00,North,0,8.0,-999.0,73,-99.99,,,-99.99,155.440002,,2013-03-16 21:43:00,
2013-03-16 17:53:00,31.0,23.0,-100.00,North,0,8.0,-999.0,73,-99.99,,,-99.99,155.440002,,2013-03-16 21:53:00,
2013-03-16 19:00:00,30.0,21.0,-100.00,North,0,7.0,-999.0,69,-99.99,,,-99.99,59.160000,,2013-03-16 23:00:00,
2013-03-16 19:42:00,30.0,21.0,-100.00,North,0,7.0,-999.0,69,-99.99,,,-99.99,59.160000,,2013-03-16 23:42:00,
2013-03-16 19:53:00,30.0,21.0,-100.00,North,0,7.0,-999.0,69,-99.99,,,-99.99,59.160000,,2013-03-16 23:53:00,
2013-03-16 21:00:00,29.0,20.0,-100.00,North,0,7.0,-999.0,68,-99.99,,,-99.99,0.000000,,2013-03-17 01:00:00,
2013-03-16 21:43:00,29.0,20.0,-100.00,North,0,7.0,-999.0,68,-99.99,,,-99.99,0.000000,,2013-03-17 01:43:00,
2013-03-16 21:53:00,29.0,20.0,-100.00,North,0,7.0,-999.0,68,-99.99,,,-99.99,0.000000,,2013-03-17 01:53:00,
2013-03-16 22:00:00,29.0,19.0,-100.00,North,0,5.0,-999.0,66,-99.99,,,-99.99,0.000000,,2013-03-17 02:00:00,
2013-03-16 22:43:00,29.0,19.0,-100.00,North,0,5.0,-999.0,66,-99.99,,,-99.99,0.000000,,2013-03-17 02:43:00,
2013-03-16 22:53:00,29.0,19.0,-100.00,North,0,5.0,-999.0,66,-99.99,,,-99.99,0.000000,,2013-03-17 02:53:00,
2013-03-16 23:00:00,28.0,19.0,-100.00,North,0,5.0,-999.0,66,-99.99,,,-99.99,0.000000,,2013-03-17 03:00:00,
2013-03-16 23:43:00,28.0,19.0,-100.00,North,0,5.0,-999.0,66,-99.99,,,-99.99,0.000000,,2013-03-17 03:43:00,
2013-03-16 23:53:00,28.0,19.0,-100.00,North,0,5.0,-999.0,66,-99.99,,,-99.99,0.000000,,2013-03-17 03:53:00,